Montana Department of Transportation

Main Content

Accidents and Incidents Report

Hourly Weather Roundup

ASUS45 KTFX 011019
RWRMT 
MONTANA HOURLY WEATHER ROUNDUP
NATIONAL WEATHER SERVICE GREAT FALLS MT
419 AM MDT SAT NOV 1 2014

NOTE: "FAIR" INDICATES FEW OR NO CLOUDS BELOW 12000 FEET WITH NO
SIGNIFICANT WEATHER AND/OR OBSTRUCTIONS TO VISIBILITY.

* THESE STATIONS ARE NOT UNDER NWS QUALITY CONTROL. THEY DO NOT
   REPORT WEATHER SUCH AS PRECIPITATION OR FOG.

MTZ001.007-043-011100-
WEST OF THE DIVIDE
CITY           SKY/WX    TMP DP  RH WIND       PRES   REMARKS
KALISPELL      FOG       36  36 100 S3        29.74F VSB M1/4 
MISSOULA       PTCLDY    36  34  92 CALM      29.72F 
BUTTE          CLOUDY    34  28  79 CALM      29.76F 
MULLAN PASS    FOG       36  36 100 CALM      29.74F VSB 2    
* ESSEX        N/A       33  32  96 NW3        N/A   
* LINCOLN      N/A       27  26  96 W1         N/A   
* LOOKOUT PASS N/A       41  41 100 NW3        N/A   
* POLSON       N/A       37  37 100 N2         N/A   
* RONAN APT    PTCLDY    36  34  92 N/A        N/A   
* SEELEY LAKE  N/A       27  26  96 N2         N/A   
* THOMP F APT  MOCLDY    52  24  34 E8G23      N/A   
* YAAK HILL    N/A       44  41  89 N/A        N/A   
--------------------------------

MTZ008-052.055-011100-
SOUTHWEST MONTANA
CITY           SKY/WX    TMP DP  RH WIND       PRES   REMARKS
DILLON         CLOUDY    39  27  62 NE5       29.73F WCI  35 
W YELLOWSTONE  CLOUDY    28  27  96 CALM      29.87S 
* THREE FORKS  MOCLDY    34   3  27 N/A        N/A   
* BOULDER HILL N/A       43  21  42 S6         N/A   
* MONIDA PASS  N/A       38  24  57 SE1        N/A   
* RAYNOLDS PAS N/A       41  25  53 S15        N/A   
* WHITEHALL    N/A       33  25  72 NE2        N/A   
* WISE RIVER   N/A       31  27  85 W1         N/A   
--------------------------------

MTZ009.010-012-014-046-048-049-054-011100-
EAST SLOPES AND CENTRAL MONTANA
CITY           SKY/WX    TMP DP  RH WIND       PRES   REMARKS
CUT BANK       CLEAR     34  28  79 NE7       29.71F WCI  28 
GREAT FALLS    CLEAR     37  30  76 S5        29.71F WCI  33 
HELENA         PTCLDY    37  30  76 CALM      29.72F 
MALMSTROM AFB  CLEAR     37  32  82 SW5       29.72F WCI  33 
* DEARBORN     N/A       33  31  92 SW2        N/A   
* EAST GLACIER N/A       42  32  68 S2         N/A   
* MONARCH      N/A       41  22  47 S3         N/A   
* SAINT MARY   N/A       40  30  68 S4         N/A   
* SWEET GRASS  N/A       43  31  63 SW11       N/A   
* WHITE SULPH  N/A       41  26  55 E12G18     N/A   
--------------------------------

MTZ011-013-016-021-035-040-045-047-050-051-011100-
NORTH CENTRAL MONTANA
CITY           SKY/WX    TMP DP  RH WIND       PRES   REMARKS
HAVRE          CLEAR     27  25  92 W3        29.72S 
LEWISTOWN      MOCLDY    43  30  60 SE8       29.73F 
* N BAR RANCH  CLEAR     45  28  51 NW6       29.75F 
* FORT BENTON  CLEAR     34  32  92 CALM      29.72F 
* CHESTER      N/A       28  25  89 N2         N/A   
* DENTON       N/A       38  31  76 S6         N/A   WCI  33 
* GEYSER       N/A       37  28  70 W1         N/A   
* JUDITH GAP   N/A       41  30  65 S4         N/A   
* LOMA         N/A       33  31  92 W2         N/A   
--------------------------------

MTZ017.020-022.027-061-062-011100-
NORTHEAST MONTANA
CITY           SKY/WX    TMP DP  RH WIND       PRES   REMARKS
GLASGOW        PTCLDY    36  28  73 E12       29.72S WCI  28 
GLENDIVE       CLEAR     32  25  75 CALM      29.77F 
JORDAN         PTCLDY    30  27  89 CALM      29.71S 
SIDNEY         CLEAR     28  19  69 CALM      29.80F 
WOLF POINT     PTCLDY    30  25  82 NE6       29.76S WCI  24 
* BEAVER HILL  N/A       38  28  67 SE17       N/A   WCI  29 
* CIRCLE       N/A       39  33  79 N/A        N/A   
* LINDSAY DVD  N/A       33  28  82 E2         N/A   
* NAVAJO       N/A       31  21  66 S9         N/A   WCI  23 
* PLENTYWOOD A N/A       38 N/A N/A N/A        N/A   
* SACO         N/A       35  31  85 E10        N/A   WCI  27 
--------------------------------

MTZ028.042-056.058-011100-
SOUTHCENTRAL AND SOUTHEASTMONTANA
CITY           SKY/WX    TMP DP  RH WIND       PRES   REMARKS
BAKER          PTCLDY    30  27  89 SE8       29.78F WCI  22 
BILLINGS       CLOUDY    48  32  54 CALM      29.73S 
LIVINGSTON     PTCLDY    39  25  57 NW3       29.75F 
MILES CITY     PTCLDY    37  30  76 E3        29.74F 
* LAUREL APT   CLOUDY    45  25  45 N/A        N/A   
* ROUNDUP APT  CLOUDY    45  30  56 SW6        N/A   
* ALZADA       N/A       32  28  85 E4         N/A   
* HYSHAM       N/A       49  29  46 VRB1       N/A   
* LAME DEER    N/A       49  30  48 S6         N/A   
* REED POINT   N/A       36  34  92 W6         N/A   WCI  31 
* ROSCOE HILL  N/A       55  19  24 SW2        N/A   
--------------------------------

REGIONAL REPORTS...DAKOTAS
CITY           SKY/WX    TMP DP  RH WIND       PRES   REMARKS
WILLISTON      PTCLDY    34  19  54 CALM      29.81F 
DICKINSON      PTCLDY    34  18  52 S15       29.80F WCI  24 
BEACH          N/A       32  23  69 S13       29.79F WCI  22 
CROSBY         CLEAR     32  19  59 S10       29.81F WCI  24 
TIOGA          CLEAR     28  19  69 SE8       29.85R WCI  20 
BISMARCK       PTCLDY    34  18  52 SE12      29.96F WCI  25 
GRAND FORKS    MOCLDY    32  18  56 S18G30    30.19F WCI  21 
FARGO          MOCLDY    30  18  61 S23G30    30.25F WCI  17 
BUFFALO SD     PTCLDY    34  25  70 S6        29.75F WCI  29 
RAPID CITY     PTCLDY    37  28  70 SE8       29.84F WCI  31 
--------------------------------

REGIONAL REPORTS...WYOMING/IDAHO/WASHINGTON
CITY           SKY/WX    TMP DP  RH WIND       PRES   REMARKS
GILLETTE       MOCLDY    41  28  60 E8        29.80F 
SHERIDAN       CLOUDY    36  30  79 CALM      29.77F 
CODY           CLOUDY    52  25  35 SW10      29.80F 
YELLOWSTONE LA MOCLDY    28  25  89 CALM      29.94F 
SALMON         PTCLDY    32  28  85 CALM      29.70S 
MULLAN PASS    FOG       36  36 100 CALM      29.74S VSB 2    
SAND POINT     N/A       45  45 100 CALM      29.74F 
SPOKANE        LGT RAIN  45  45 100 SW3       29.75F 
--------------------------------

REGIONAL REPORTS...ALBERTA
CITY           SKY/WX    TMP DP  RH WIND       PRES   REMARKS
CALGARY        N/A       32  30  92 N7        29.71S WCI  25 
LETHBRIDGE     CLEAR     37  32  82 VRB5      29.68S WCI  33 
MEDICINE HAT   CLEAR     37  34  89 SE3       29.68S 
EDMONTON       CLOUDY    37  36  96 NW12G17   29.73S WCI  29 
WATERTON GATE  N/A       41  32  70 SW6        N/A   
CARDSTON       N/A       37  32  82 SW5        N/A   WCI  33 
MILK RIVER     N/A       34  30  85 SW1        N/A   
--------------------------------

REGIONAL REPORTS...SASKATCHEWAN
CITY           SKY/WX    TMP DP  RH WIND       PRES   REMARKS
SWIFT CURRENT  CLEAR     39  34  82 SW14      29.68S WCI  31 
REGINA         N/A       30  21  69 SE16      29.75F WCI  19 
VAL MARIE      N/A       25  25 100 NE2        N/A   
ASSINIBOIA     N/A       32  28  85 SE7        N/A   WCI  25 

--------------------------------